Temperature
16 16 17 17 17 17 18 21 22 23 24 24 24 24 24 22 23 20 20 19 20 20 18 17 17 16 16 16 16 16 16 16 16 16 16 16 16 16 16 16 16 16 16 16 16 16 16 16 16
16 16 17 17 17 17 19 21 22 23 23 23 23 23 24 22 20 20 19 19 19 20 18 17 16 16 16 16 16 16 16 16 16 16 16 16 16 16 16 16 16 16 16 16 16 16 16 16 16
15 16 17 17 17 18 20 22 23 23 23 23 23 23 22 21 20 20 19 19 19 19 18 17 16 16 16 16 16 17 16 16 16 16 16 16 16 17 17 17 17 17 17 17 17 16 16 16 16
14 16 17 17 18 20 21 22 23 23 22 22 23 22 20 19 20 20 19 18 18 18 17 17 16 16 16 16 17 17 17 17 16 16 16 16 17 17 17 17 17 17 17 17 17 17 16 16 16
14 16 16 16 18 20 21 22 23 22 22 22 22 21 18 18 19 19 18 18 17 17 17 16 16 16 16 16 17 17 17 17 16 17 16 17 17 17 17 17 17 17 17 17 17 17 17 16 16
14 15 15 16 18 20 21 22 22 22 22 22 22 20 16 18 18 18 18 18 17 17 17 16 16 16 16 16 16 17 17 17 17 16 17 17 17 17 17 17 17 17 17 17 17 17 17 17 16
14 14 15 17 18 20 21 21 22 22 22 22 21 19 16 17 18 18 18 18 17 17 16 16 15 15 16 16 17 17 17 17 17 16 17 17 17 17 17 17 17 17 17 17 17 17 17 17 16
13 14 15 17 18 19 21 21 21 21 21 21 20 19 16 16 17 17 17 17 17 16 16 16 15 15 16 16 16 17 17 17 17 17 17 17 17 17 17 17 17 17 17 17 17 17 17 17 16
13 13 14 16 18 19 21 20 20 20 20 19 18 18 17 16 16 17 17 17 16 16 16 16 15 15 15 16 16 16 17 17 17 17 17 17 17 17 17 17 17 17 17 17 17 17 17 16 16
13 12 14 17 18 18 20 20 20 20 19 19 17 16 16 16 16 17 16 16 16 16 16 16 15 15 15 15 16 16 16 16 16 16 16 16 15 16 17 17 17 17 17 17 17 17 16 16 16
13 13 15 17 17 17 18 19 19 19 19 19 18 16 16 16 16 16 16 16 16 16 16 16 16 15 15 15 15 15 15 15 15 15 15 15 15 15 16 16 16 17 17 17 16 16 16 16 15
13 15 16 16 15 16 16 17 18 19 18 18 17 17 16 16 16 16 16 16 16 16 16 16 16 15 15 15 15 14 15 15 14 14 14 14 15 15 15 15 16 16 16 16 16 15 15 14 14
13 14 15 15 15 15 15 16 17 17 17 17 17 16 16 16 16 16 16 16 16 16 16 16 16 15 15 15 15 15 15 15 15 14 14 14 14 15 14 15 15 15 14 15 15 15 14 14 14
13 14 15 15 14 15 14 15 16 17 17 17 17 16 16 16 16 16 16 16 16 16 16 16 15 15 15 15 15 15 14 14 14 15 15 14 14 14 14 14 14 14 14 14 14 14 14 14 14
13 13 13 14 14 14 14 14 15 16 17 17 17 16 16 16 16 16 16 16 16 16 16 16 15 15 15 15 15 15 14 14 14 14 14 14 14 14 14 14 14 14 14 14 14 14 14 14 14
12 12 12 13 14 14 13 13 15 16 17 17 17 17 16 16 16 16 16 16 16 16 15 15 15 15 15 15 15 14 14 14 14 14 14 14 14 14 14 14 14 14 14 14 14 14 13 13 13
11 10 11 12 13 13 13 13 15 16 16 17 17 17 17 17 16 16 16 16 16 16 16 15 15 15 15 15 15 14 14 14 14 14 14 14 14 14 14 14 14 14 14 14 13 13 13 13 13
10 11 12 12 13 13 13 13 15 16 16 16 17 18 18 17 17 17 16 16 16 16 16 16 15 15 15 15 15 15 14 14 14 14 14 14 14 14 14 14 14 13 13 13 13 13 13 13 13
11 12 12 13 14 13 13 13 14 15 15 16 17 17 17 18 17 17 17 16 16 16 16 16 16 15 15 15 15 15 15 15 14 14 14 14 14 14 14 14 14 14 13 13 13 13 13 13 13
11 12 12 13 14 13 13 13 15 15 15 16 16 17 17 17 17 17 17 17 16 16 16 16 16 15 15 15 15 15 15 14 14 14 14 14 14 14 14 14 14 13 13 13 13 13 12 12 12
11 12 12 12 13 13 13 13 14 15 16 16 16 17 17 17 17 17 17 17 16 16 16 16 16 15 15 15 15 15 15 14 14 14 14 14 14 14 14 14 14 13 13 13 13 13 12 12 12
11 13 13 12 11 11 13 11 13 15 15 15 16 17 17 17 18 17 17 16 16 16 16 16 15 15 15 15 15 15 15 15 14 14 14 14 14 14 14 14 13 13 13 13 13 12 12 11 11
11 13 13 12 12 12 12 12 13 15 15 15 16 17 17 17 17 17 17 17 16 16 16 15 15 15 15 15 15 15 15 14 14 14 14 14 14 14 14 13 13 13 12 12 12 12 11 11 10
11 12 12 12 11 10 12 12 13 15 15 16 16 17 17 17 17 17 17 16 16 16 16 15 15 15 15 15 15 15 14 14 14 14 13 13 13 13 13 13 12 12 12 11 11 11 11 10 10
11 10 9 9 9 10 13 13 14 16 16 16 16 17 17 17 17 16 16 16 16 16 15 15 15 15 15 15 15 14 14 14 13 13 13 13 12 12 12 12 12 11 11 11 10 10 10 10 9
10 10 10 10 10 11 13 12 14 16 16 16 16 16 16 16 16 16 15 15 15 15 15 15 14 14 14 14 14 14 14 13 13 13 12 12 12 11 11 11 11 10 10 10 10 9 9 9 8
10 10 11 10 11 11 11 14 15 15 15 15 15 15 15 15 15 15 15 14 14 14 14 14 14 14 13 13 13 13 13 13 12 12 12 11 11 11 10 10 10 9 9 9 9 8 8 8 8
10 11 10 9 10 10 12 13 13 14 14 14 14 15 15 14 14 14 14 13 13 13 13 12 12 12 12 12 13 12 12 12 12 12 11 11 10 10 9 9 9 9 8 8 8 8 7 7 7
10 10 10 10 10 10 11 12 14 14 14 13 13 14 14 13 13 13 13 12 12 11 11 11 11 11 11 12 12 12 12 11 11 11 11 10 10 9 9 8 8 8 7 7 7 7 6 6 6
10 10 10 9 9 10 10 11 14 13 13 13 13 13 13 12 12 12 12 11 11 10 10 10 10 10 11 11 11 11 11 11 10 10 10 9 9 8 8 7 7 7 7 6 6 6 6 5 5
Wind_Speed
13 14 8 3 3 5 10 11 9 7 3 1 5 5 6 9 6 12 9 16 20 19 22 21 20 19 18 17 16 15 14 14 14 15 15 16 16 16 17 17 18 18 18 18 18 17 16 16 15
11 10 5 4 6 9 11 12 10 7 2 3 4 4 4 8 8 9 10 18 20 20 21 20 20 20 19 17 16 15 14 14 14 15 15 16 16 16 17 17 17 17 17 16 16 15 15 15 14
10 10 5 4 8 12 11 12 10 7 4 1 1 3 5 7 6 6 13 19 18 18 20 22 21 20 19 17 16 15 14 14 14 14 15 16 16 16 16 16 16 16 15 15 15 14 14 13 12
6 5 5 7 14 15 11 6 6 8 4 2 2 3 6 7 5 8 15 16 17 15 21 22 21 20 18 17 15 15 14 14 15 15 15 15 16 16 16 15 15 14 14 14 14 13 12 12 11
5 4 8 10 15 14 8 1 1 6 8 6 5 3 5 4 5 10 11 14 15 16 21 21 21 20 18 16 15 14 13 14 14 15 15 15 15 15 15 14 13 13 12 12 12 11 11 10 9
4 4 8 14 17 14 8 4 3 4 6 8 6 5 4 1 4 6 7 12 14 16 19 20 20 19 17 16 15 14 13 13 14 14 14 15 15 14 13 12 11 11 11 10 10 9 9 8 7
6 6 10 15 15 13 9 6 5 5 5 6 3 5 6 4 4 3 5 11 14 16 16 17 17 17 17 16 14 13 12 12 13 14 14 15 14 13 12 11 10 9 9 8 8 7 6 6 5
5 4 11 14 14 11 8 6 3 2 1 3 3 4 7 8 6 4 5 9 12 13 13 14 16 16 15 14 14 13 12 13 14 14 15 15 14 13 12 11 9 8 7 6 5 4 3 2 1
4 6 11 15 10 7 7 6 3 2 4 4 6 6 11 14 10 7 6 8 9 10 11 11 13 15 16 15 14 14 13 14 14 14 14 14 12 13 11 11 9 7 5 4 3 2 2 3 4
6 8 13 12 7 5 5 6 6 4 6 5 8 11 13 12 11 11 9 9 9 9 9 9 9 11 14 14 14 13 12 13 12 13 13 11 9 10 11 12 9 7 6 5 5 6 6 8 9
8 10 12 10 3 1 2 3 5 7 6 5 9 14 14 12 11 11 10 10 9 9 8 8 8 9 10 10 11 11 12 12 12 14 14 9 9 10 10 10 9 9 9 9 9 10 10 11 6
9 13 13 8 1 1 2 3 4 4 5 6 8 13 12 13 11 10 10 9 9 9 8 8 8 7 9 9 7 8 8 8 7 8 9 7 5 5 6 7 9 10 10 9 8 9 10 8 8
14 11 11 8 4 4 3 4 3 4 7 8 10 11 12 11 10 9 9 8 8 9 9 9 9 8 7 6 5 5 6 7 7 7 5 4 4 3 3 3 5 5 5 5 5 6 5 4 5
10 11 9 7 7 5 4 5 4 6 7 8 9 9 9 9 8 8 8 8 8 9 9 8 8 7 7 5 3 3 5 5 7 7 5 4 4 2 2 1 2 2 2 3 3 5 4 3 3
8 8 7 7 8 5 3 7 8 8 7 8 8 9 9 8 8 8 8 7 7 8 8 8 8 7 7 6 5 5 6 6 5 7 6 5 4 3 2 2 1 3 4 5 4 5 3 2 3
6 7 7 7 9 6 6 9 10 9 7 7 8 9 9 8 8 7 8 8 7 7 7 7 7 8 7 6 5 4 5 6 5 6 6 6 6 6 4 2 2 4 4 3 2 2 3 3 4
5 8 10 8 10 7 7 7 9 7 7 6 7 8 9 9 8 7 7 7 7 7 7 7 7 7 7 6 5 5 5 4 5 6 4 4 4 4 3 3 3 4 3 2 2 2 3 3 4
10 9 11 10 10 10 10 8 7 7 6 7 7 6 7 9 9 9 7 6 6 6 7 8 7 7 7 5 4 3 3 3 4 4 4 3 2 2 2 2 3 3 1 2 3 3 3 3 4
7 9 11 9 10 11 12 12 11 8 6 8 8 8 6 6 8 9 9 8 7 6 7 8 8 7 6 5 5 4 4 3 3 3 4 3 1 1 0 1 2 2 2 3 3 3 4 3 2
7 8 8 6 10 9 9 12 10 11 11 10 10 10 9 7 6 8 9 8 7 7 7 7 7 7 6 5 4 4 3 3 3 3 4 4 2 2 1 1 1 2 2 3 4 3 2 3 2
7 8 7 6 7 7 6 8 12 11 11 12 12 12 10 10 9 10 10 9 8 7 7 6 7 6 6 6 4 4 3 3 2 3 3 3 4 4 4 3 3 2 1 2 3 3 3 3 3
6 6 6 8 7 5 8 5 11 13 14 15 15 13 12 11 10 10 10 10 9 7 6 5 6 6 5 6 6 6 5 4 4 3 4 4 5 5 5 5 4 3 2 2 3 3 3 3 3
2 1 4 7 6 3 7 5 6 12 13 16 15 14 12 12 10 10 11 10 9 8 6 6 5 5 5 5 6 6 4 4 4 4 5 4 5 6 5 5 5 4 3 3 4 4 4 3 3
2 3 3 2 2 4 8 7 5 9 13 12 12 12 11 10 9 9 8 10 8 8 7 6 6 5 5 5 5 5 6 6 6 5 4 3 3 4 5 5 4 4 3 3 4 4 4 3 4
4 5 4 3 3 6 8 7 5 3 5 4 5 7 7 6 6 7 8 9 9 9 8 7 8 6 6 5 5 5 6 6 6 5 4 3 3 3 4 4 3 3 4 4 4 3 3 3 3
6 5 2 3 5 3 5 6 4 3 6 5 3 1 1 2 4 6 8 9 9 9 9 8 8 7 7 6 6 6 6 5 5 5 5 4 4 4 4 3 3 3 4 4 3 2 2 2 3
3 4 3 3 2 2 4 4 4 5 5 4 3 2 2 2 2 4 6 8 9 10 9 9 9 8 8 7 7 7 6 6 6 6 5 5 5 4 4 3 2 3 3 3 3 2 2 2 3
3 2 2 1 1 2 5 7 5 8 7 6 4 3 3 3 2 3 4 7 8 9 8 8 9 8 8 8 7 6 7 7 6 6 5 5 5 4 3 2 3 3 3 3 2 2 2 3 3
4 3 3 2 2 1 2 0 3 7 7 7 7 6 5 4 3 3 4 6 7 8 8 7 8 9 8 8 8 8 7 6 6 5 5 5 4 4 3 3 3 3 3 2 2 2 2 3 3
4 5 5 2 3 2 1 1 3 8 7 7 7 6 4 4 2 3 5 6 7 7 7 7 8 8 8 8 8 8 7 6 6 6 5 4 4 4 3 3 3 3 3 3 2 3 3 4 4
Wind_Direction
293 271 250 233 227 224 232 235 231 235 216 8 2 349 23 37 60 117 138 126 125 130 138 142 140 136 130 123 118 114 110 108 104 100 97 93 89 87 85 84 84 84 83 83 82 81 81 80 79
288 273 242 227 224 221 223 226 223 214 135 39 358 339 49 72 63 112 130 124 128 130 140 143 139 135 130 125 121 118 114 110 108 104 101 98 94 90 88 86 86 86 85 84 83 82 80 80 79
274 263 235 217 228 226 221 210 205 180 108 79 347 352 38 57 87 112 120 128 127 132 139 137 139 135 131 127 124 121 117 113 112 108 105 103 99 95 93 90 89 88 88 86 84 83 81 80 77
256 229 233 231 226 231 240 226 178 154 140 193 192 92 78 27 6 107 121 130 128 130 128 136 137 134 130 128 126 123 120 118 117 113 109 107 104 101 98 96 94 91 89 88 85 83 81 79 75
246 226 215 225 231 225 229 306 161 166 160 183 204 130 74 4 29 103 130 132 129 126 128 138 136 134 131 129 128 126 123 121 121 118 114 112 109 107 104 101 98 95 91 89 86 83 80 77 71
221 217 209 214 222 222 203 168 238 217 176 174 194 141 93 44 77 127 144 129 125 124 130 137 137 134 132 131 129 128 127 126 124 122 117 116 114 112 109 106 103 98 93 89 86 82 79 74 66
212 211 219 215 215 214 198 158 196 229 200 163 173 131 125 119 105 136 131 123 120 124 130 137 138 134 132 131 130 130 128 127 126 124 122 121 120 119 117 114 110 103 97 93 89 84 80 74 65
226 220 226 225 217 211 183 160 165 258 190 77 43 133 144 143 135 127 102 111 119 128 136 142 144 140 137 132 131 130 127 127 126 128 129 131 133 132 130 123 117 112 107 103 100 96 95 96 94
232 223 219 218 221 210 172 158 153 25 82 77 72 68 122 136 135 130 114 114 124 135 141 145 148 149 147 140 139 133 130 131 132 137 145 150 158 154 147 135 134 132 131 134 139 163 208 226 234
202 215 220 220 226 218 193 170 161 165 134 122 104 105 125 137 143 148 147 146 148 149 146 145 147 149 144 141 151 152 150 154 161 160 172 190 178 147 139 144 154 162 172 182 200 218 238 244 237
205 218 218 226 230 186 198 197 184 174 164 147 138 139 143 146 150 156 158 160 162 156 149 145 140 140 137 148 163 161 162 174 188 171 186 191 140 137 149 163 174 189 199 207 212 221 235 238 225
221 225 218 218 219 204 212 219 222 184 123 112 126 143 150 153 157 161 162 165 164 159 154 148 143 142 147 156 156 155 158 173 175 168 182 174 157 166 174 177 184 194 201 206 200 222 228 224 229
225 226 218 197 194 222 225 234 209 136 115 111 125 141 152 154 159 161 156 161 163 162 161 156 152 151 151 148 152 167 162 166 160 158 187 172 147 182 177 195 181 211 204 184 213 248 260 250 256
220 227 218 194 192 213 211 244 198 155 137 128 134 143 152 154 158 157 154 162 170 166 165 159 159 155 152 151 160 171 158 153 147 152 186 186 178 172 134 227 179 233 236 247 239 254 259 265 269
230 218 210 203 195 190 196 236 214 173 164 153 148 145 151 159 161 164 162 164 170 166 164 161 163 160 160 164 173 170 160 164 157 160 188 184 186 168 174 251 209 233 239 244 250 278 294 296 294
208 207 204 202 199 187 196 220 219 187 186 182 165 152 156 157 168 170 164 164 170 162 161 163 165 168 169 167 167 165 173 166 162 164 183 187 196 191 193 214 236 248 246 243 242 264 281 274 266
186 196 196 193 199 181 202 227 226 212 193 209 200 172 165 162 170 162 158 160 159 162 162 163 162 168 171 167 162 163 166 157 159 157 165 179 192 188 191 213 244 253 248 245 250 249 256 273 277
183 193 193 190 189 192 206 230 236 222 213 226 236 216 181 172 169 158 158 157 154 163 168 169 170 173 169 164 159 156 156 149 151 145 145 155 181 198 214 235 261 276 257 257 259 257 255 258 273
196 201 200 195 181 191 212 227 227 223 228 233 240 245 221 198 168 152 153 160 163 173 175 173 173 177 166 160 162 163 169 163 151 131 122 126 125 128 150 321 305 308 281 274 276 273 273 269 270
234 215 203 182 170 187 209 230 226 216 217 228 236 240 231 215 186 157 155 163 172 179 182 173 170 173 166 159 156 150 146 141 133 117 112 103 87 59 58 17 327 325 313 305 299 296 280 272 240
237 223 192 161 165 202 204 229 229 221 219 220 230 237 234 219 200 175 169 169 173 178 177 173 165 161 155 147 132 118 104 99 128 138 124 93 80 60 47 27 4 350 340 304 306 309 289 277 270
217 219 191 164 164 200 196 221 219 214 214 215 219 226 228 222 210 184 173 170 169 161 147 145 142 142 143 142 146 154 159 165 165 149 136 118 95 70 48 28 10 358 348 328 318 322 308 289 278
212 164 178 175 197 217 204 229 233 207 211 211 211 216 219 215 208 191 177 169 158 145 140 140 138 141 144 145 151 157 150 141 124 114 123 122 107 90 65 37 17 8 4 354 346 336 325 304 281
160 141 144 176 211 236 209 216 252 211 208 206 202 206 212 208 197 182 167 149 143 138 142 148 151 150 144 142 144 145 142 136 132 134 138 131 124 109 86 51 23 16 18 5 354 340 334 331 316
188 148 141 167 198 233 198 208 241 207 175 175 188 200 201 194 181 168 157 152 149 149 155 159 156 156 150 139 130 123 123 126 132 133 128 120 115 105 84 60 31 27 19 7 355 338 336 342 334
205 205 181 185 191 203 178 211 236 124 97 85 72 60 158 187 179 172 163 158 156 158 162 165 161 156 147 136 123 110 106 104 102 93 93 92 92 92 79 59 39 38 23 9 358 347 350 357 353
199 226 281 323 293 156 206 227 210 135 130 143 164 175 201 186 168 153 150 154 156 161 168 170 160 151 145 137 127 118 109 102 102 96 88 85 83 84 73 61 54 51 35 12 3 16 13 31 32
299 270 228 189 200 211 202 205 201 170 164 149 147 145 140 135 129 137 143 148 156 160 163 160 150 147 141 135 129 120 111 106 108 106 103 99 95 87 76 66 63 57 40 20 30 32 36 68 58
195 215 243 247 278 266 205 176 40 108 112 117 109 95 85 92 116 139 137 140 141 144 149 151 147 143 142 135 125 123 118 117 117 113 108 107 105 98 84 73 66 58 37 28 52 59 61 83 74
260 227 217 214 264 273 312 245 86 94 97 100 107 110 109 107 111 132 139 138 143 150 154 154 151 148 145 139 136 131 127 131 130 122 114 109 109 101 89 81 78 71 48 35 58 71 67 81 82
Height
1515 1517 1519 1522 1524 1523 1520 1509 1502 1500 1500 1500 1502 1502 1503 1507 1509 1522 1522 1523 1525 1528 1532 1536 1539 1542 1544 1546 1547 1549 1550 1551 1552 1553 1554 1555 1555 1556 1556 1557 1558 1559 1560 1561 1561 1562 1563 1563 1563
1513 1516 1519 1520 1520 1523 1515 1504 1501 1499 1500 1502 1504 1505 1505 1510 1514 1518 1521 1524 1526 1529 1533 1536 1539 1542 1545 1547 1548 1550 1551 1552 1554 1555 1556 1557 1557 1558 1558 1559 1560 1561 1562 1563 1563 1564 1565 1565 1565
1512 1514 1517 1515 1515 1513 1507 1498 1496 1497 1501 1504 1506 1507 1509 1515 1518 1520 1522 1524 1527 1530 1534 1537 1540 1543 1545 1548 1549 1551 1552 1554 1555 1556 1558 1558 1559 1560 1561 1561 1562 1563 1564 1565 1566 1566 1567 1567 1568
1511 1513 1513 1511 1509 1502 1497 1494 1493 1498 1502 1505 1507 1510 1513 1517 1520 1522 1524 1527 1529 1532 1534 1538 1541 1544 1546 1548 1550 1552 1554 1555 1557 1558 1559 1560 1561 1562 1563 1564 1565 1565 1566 1567 1568 1568 1569 1569 1570
1509 1510 1510 1509 1503 1496 1494 1494 1495 1497 1501 1505 1507 1510 1515 1518 1521 1524 1527 1529 1531 1533 1535 1539 1542 1545 1547 1549 1551 1553 1555 1556 1558 1559 1561 1562 1563 1564 1565 1566 1567 1568 1568 1569 1569 1570 1570 1571 1571
1507 1506 1509 1507 1500 1493 1493 1495 1498 1498 1501 1504 1506 1510 1517 1518 1522 1525 1529 1531 1533 1533 1536 1540 1543 1545 1548 1550 1552 1554 1556 1557 1559 1561 1562 1563 1564 1566 1567 1568 1569 1569 1570 1570 1571 1572 1572 1572 1573
1504 1504 1502 1499 1496 1493 1492 1495 1498 1499 1500 1502 1506 1510 1516 1518 1521 1525 1529 1532 1533 1535 1537 1540 1543 1546 1548 1550 1552 1554 1556 1558 1560 1561 1563 1564 1565 1567 1568 1569 1570 1571 1571 1572 1572 1573 1573 1573 1574
1500 1501 1499 1495 1493 1492 1491 1495 1498 1500 1501 1503 1505 1509 1514 1517 1521 1525 1529 1532 1534 1536 1538 1541 1543 1546 1548 1551 1553 1555 1557 1559 1560 1562 1564 1565 1566 1567 1568 1570 1570 1571 1572 1573 1573 1574 1574 1574 1574
1498 1502 1498 1493 1492 1491 1491 1495 1499 1501 1502 1504 1507 1509 1512 1516 1520 1525 1528 1531 1534 1537 1539 1542 1544 1547 1549 1551 1553 1555 1557 1559 1561 1563 1564 1566 1567 1568 1569 1570 1571 1572 1572 1573 1573 1574 1574 1574 1574
1496 1498 1493 1489 1490 1492 1493 1495 1499 1501 1503 1506 1508 1511 1513 1516 1520 1524 1527 1531 1534 1537 1540 1543 1545 1547 1549 1551 1553 1555 1557 1559 1561 1563 1565 1566 1567 1568 1568 1570 1571 1571 1572 1572 1573 1573 1573 1573 1573
1491 1491 1490 1490 1492 1494 1495 1497 1499 1500 1503 1505 1507 1511 1514 1517 1520 1523 1527 1531 1534 1537 1539 1543 1545 1548 1549 1551 1553 1556 1558 1560 1561 1563 1565 1566 1568 1568 1569 1569 1570 1571 1571 1572 1572 1572 1572 1572 1572
1489 1488 1489 1491 1494 1496 1498 1499 1499 1500 1503 1504 1506 1509 1513 1516 1519 1522 1526 1530 1534 1536 1539 1542 1544 1547 1549 1552 1554 1556 1558 1560 1562 1563 1565 1566 1567 1568 1568 1569 1569 1570 1570 1570 1571 1571 1571 1572 1572
1487 1487 1489 1491 1495 1498 1499 1500 1501 1502 1503 1504 1506 1509 1512 1515 1518 1522 1525 1529 1532 1535 1538 1541 1544 1546 1549 1551 1553 1556 1558 1559 1561 1562 1564 1565 1566 1567 1568 1568 1569 1569 1570 1570 1570 1570 1571 1571 1571
1485 1487 1488 1491 1495 1498 1500 1501 1501 1501 1503 1504 1506 1509 1512 1514 1518 1520 1523 1527 1531 1534 1537 1539 1542 1545 1547 1550 1552 1555 1557 1558 1560 1561 1562 1564 1565 1566 1566 1567 1568 1568 1568 1569 1569 1569 1569 1569 1569
1485 1488 1490 1491 1494 1497 1501 1503 1500 1501 1503 1504 1506 1509 1511 1514 1517 1519 1522 1526 1529 1532 1535 1537 1540 1543 1546 1548 1551 1553 1555 1557 1558 1559 1560 1562 1563 1564 1564 1565 1566 1566 1566 1567 1567 1567 1567 1567 1566
1485 1489 1493 1492 1493 1497 1504 1504 1498 1499 1501 1503 1506 1508 1511 1513 1516 1519 1521 1524 1527 1530 1532 1535 1538 1541 1543 1546 1549 1551 1553 1555 1556 1557 1559 1560 1561 1562 1562 1563 1564 1564 1565 1565 1565 1564 1564 1564 1563
1488 1491 1493 1493 1493 1495 1501 1501 1497 1498 1500 1503 1504 1506 1509 1512 1515 1517 1519 1522 1525 1528 1530 1533 1536 1538 1541 1544 1547 1549 1551 1553 1554 1555 1557 1558 1559 1560 1560 1561 1561 1562 1562 1562 1562 1562 1561 1560 1560
1488 1488 1489 1492 1492 1494 1499 1499 1497 1497 1499 1501 1503 1505 1507 1510 1513 1515 1517 1520 1523 1526 1528 1531 1533 1536 1538 1541 1544 1547 1548 1550 1552 1553 1554 1555 1556 1557 1558 1558 1559 1559 1559 1559 1559 1558 1558 1557 1556
1484 1485 1487 1487 1488 1493 1497 1497 1496 1496 1498 1499 1501 1503 1505 1508 1510 1512 1515 1517 1520 1523 1526 1528 1530 1533 1536 1538 1541 1543 1545 1547 1549 1550 1552 1553 1553 1554 1555 1555 1555 1556 1555 1555 1555 1555 1554 1553 1552
1484 1485 1485 1485 1486 1491 1495 1495 1493 1494 1495 1498 1499 1501 1503 1505 1507 1509 1512 1515 1517 1520 1523 1525 1528 1530 1532 1535 1538 1540 1542 1544 1546 1547 1549 1550 1550 1551 1551 1552 1552 1552 1551 1551 1551 1550 1549 1549 1549
1485 1484 1484 1488 1489 1491 1494 1497 1493 1490 1492 1494 1496 1497 1499 1501 1504 1506 1509 1511 1514 1517 1519 1522 1525 1527 1530 1532 1535 1537 1539 1541 1543 1544 1545 1546 1547 1547 1547 1548 1548 1547 1547 1547 1546 1546 1545 1544 1544
1485 1480 1481 1486 1493 1496 1494 1501 1490 1485 1487 1488 1490 1492 1494 1497 1500 1502 1505 1507 1510 1513 1516 1518 1521 1524 1526 1529 1531 1533 1535 1537 1539 1540 1541 1542 1542 1543 1543 1543 1543 1543 1542 1542 1541 1541 1540 1539 1539
1482 1480 1482 1486 1490 1493 1491 1496 1486 1478 1481 1481 1483 1486 1489 1492 1495 1498 1500 1503 1506 1509 1512 1515 1517 1520 1523 1525 1527 1530 1531 1533 1535 1536 1537 1537 1538 1538 1539 1539 1538 1538 1537 1537 1536 1535 1535 1534 1534
1482 1483 1485 1488 1493 1501 1491 1494 1487 1475 1473 1474 1476 1480 1483 1487 1490 1494 1497 1499 1502 1505 1508 1511 1513 1516 1519 1521 1524 1526 1528 1529 1531 1532 1533 1533 1533 1534 1534 1534 1533 1533 1532 1532 1531 1530 1530 1529 1529
1484 1490 1498 1502 1504 1498 1482 1486 1480 1467 1466 1469 1472 1476 1479 1483 1486 1489 1492 1495 1497 1500 1503 1506 1509 1512 1515 1517 1520 1522 1524 1525 1527 1528 1529 1529 1529 1529 1529 1529 1529 1528 1527 1527 1526 1525 1525 1524 1524
1485 1487 1495 1498 1498 1490 1479 1484 1474 1465 1466 1468 1471 1474 1477 1480 1483 1485 1488 1491 1493 1496 1499 1502 1505 1508 1510 1513 1515 1518 1520 1521 1522 1524 1524 1525 1525 1525 1525 1524 1524 1523 1522 1522 1521 1520 1519 1519 1519
1485 1487 1485 1489 1486 1490 1487 1475 1469 1465 1467 1469 1472 1474 1476 1478 1481 1483 1485 1487 1490 1492 1495 1498 1501 1503 1506 1509 1511 1513 1515 1517 1518 1519 1520 1520 1521 1521 1520 1520 1519 1518 1518 1517 1516 1516 1515 1514 1514
1486 1485 1488 1493 1492 1492 1483 1478 1475 1469 1469 1470 1472 1474 1476 1478 1480 1482 1483 1485 1487 1489 1492 1494 1497 1500 1502 1505 1507 1509 1511 1513 1514 1515 1516 1516 1516 1516 1516 1515 1515 1514 1513 1513 1512 1511 1510 1510 1510
1487 1488 1486 1486 1486 1490 1489 1483 1466 1466 1468 1471 1473 1475 1476 1478 1479 1480 1482 1483 1485 1487 1489 1491 1493 1496 1499 1501 1503 1506 1508 1509 1510 1511 1512 1512 1512 1512 1512 1511 1511 1510 1509 1509 1508 1507 1507 1506 1506
1484 1483 1485 1492 1490 1485 1489 1487 1467 1468 1469 1471 1474 1476 1477 1477 1478 1479 1480 1481 1482 1483 1485 1488 1490 1493 1495 1498 1500 1502 1504 1505 1506 1507 1508 1508 1508 1508 1507 1507 1506 1506 1505 1505 1504 1503 1503 1503 1503